Regional Weather Roundup
Issued by NWS Sterling, VA

Home | Current Version | Previous Version | Graphics & Text | Print | Product List | Glossary On
Versions: 1 2 3 4 5 6 7 8 9 10 11 12 13 14 15 16 17 18 19 20 21 22 23 24 25 26 27
000
ASUS41 KLWX 060510
RWRLWX

REGIONAL WEATHER ROUNDUP
NATIONAL WEATHER SERVICE BALTIMORE MD/WASHINGTON DC
100 AM EDT FRI MAY 06 2016

Note: "FAIR" indicates few or no clouds below 12,000 feet
with no significant weather and/or obstructions to visibility.
 TC=TEMPERATURE CELSIUS

 * =Non NWS site. Station does not report precipitation (e.g. rain,
    snow, etc.), thunder, or fog.

DCZ001-MDZ009-015-VAZ040>042-051-053>054-060600-
WASHINGTON METRO

CITY           SKY/WX    TMP DP  RH WIND       PRES   REMARKS
WASHINGTON NAT CLOUDY    54  50  86 N9        29.68R
DULLES         CLOUDY    52  49  89 NW9       29.68S
ANDREWS AFB    CLOUDY    52  50  93 N6        29.66R
FT BELVOIR     CLOUDY    54  50  87 NW5       29.67S
QUANTICO       LGT RAIN  54  50  86 N9        29.68S
COLLEGE PARK*  CLOUDY    52  48  87 N3        29.66S
LEESBURG*      CLOUDY    52  52 100 N8        29.69S
MANASSAS*      MOCLDY    52  52 100 N6        29.68S
GAITHERSBURG*  CLOUDY    52  46  82 CALM      29.71S

$$

MDZ006>007-011-014-060600-
BALTIMORE METRO

CITY           SKY/WX    TMP DP  RH WIND       PRES   REMARKS
BWI AIRPORT    CLOUDY    53  50  89 N5        29.66R
MD SCIENCE CTR   N/A     55  48  77 MISG      29.66S
MARTIN STATE   CLOUDY    54  52  94 CALM      29.68R
ANNAPOLIS      CLOUDY    53  52  96 CALM      29.66R
FORT MEADE*    CLOUDY    52  50  93 CALM      29.69R

$$

MDZ012-015-019>023-060600-
MARYLAND EASTERN SHORE

CITY           SKY/WX    TMP DP  RH WIND       PRES   REMARKS
OCEAN CITY     CLOUDY    50  47  89 NE13G21   29.64S
SALISBURY      LGT RAIN  50  49  96 NE8       29.64F FOG
CAMBRIDGE*       N/A     50  48  93 CALM      29.66R
EASTON*        CLOUDY   N/A N/A N/A CALM      29.70R

$$

MDZ017>025-060600-
SOUTHERN MARYLAND

CITY           SKY/WX    TMP DP  RH WIND       PRES   REMARKS
PATUXENT RIVER CLOUDY    53  48  83 NE7       29.65S
ST INIGOES     CLOUDY    53  51  93 CALM      29.65S
LEONARDTOWN*   CLOUDY    50  48  93 CALM      29.66F

$$

MDZ003>005-060600-
NORTH CENTRAL MARYLAND

CITY           SKY/WX    TMP DP  RH WIND       PRES   REMARKS
FREDERICK*     CLOUDY    50  50 100 N3        29.71S
HAGERSTOWN APT CLOUDY    51  48  89 NW5       29.70S
WESTMINSTER*   CLOUDY    52  46  82 NE6       29.68R

$$

MDZ501>502-060600-
WESTERN MARYLAND

CITY           SKY/WX    TMP DP  RH WIND       PRES   REMARKS
OAKLAND*       CLOUDY    43  41  93 N5        29.73R
CUMBERLAND*    CLOUDY    54  50  87 CALM      29.75S

$$

VAZ025>031-060600-
SHENANDOAH VALLEY

CITY           SKY/WX    TMP DP  RH WIND       PRES   REMARKS
WINCHESTER*    RAIN      50  50 100 CALM      29.70F
FRONT ROYAL*   CLOUDY    50  50 100 CALM      29.70S
LURAY*         RAIN      50  50 100 N5        29.70S
NEW MARKET*    CLOUDY    51  48  90 NE5       29.70S
STAUNTON*      CLOUDY    53  51  94 N5        29.71S
WAYNESBORO*    CLOUDY    50  48  95 N7        29.70R

$$

WVZ021-048>050-054>055-060600-
EASTERN WEST VIRGINIA PANHANDLE

CITY           SKY/WX    TMP DP  RH WIND       PRES   REMARKS
MARTINSBURG    RAIN      50  49  96 NW6       29.70S FOG
PETERSBURG*    CLOUDY    53  52  97 CALM      29.73R

$$

VAZ036>039-050-060600-
CENTRAL FOOTHILLS

CITY           SKY/WX    TMP DP  RH WIND       PRES   REMARKS
CHARLOTTESVILL LGT RAIN  52  49  89 N6        29.68S
CULPEPER*      HVY RAIN  52  51  97 N5        29.69F
ORANGE*        LGT RAIN  52  52 100 NE5       29.70S
GORDONSVILLE*  CLOUDY    51  50  97 N7        29.68S
WARRENTON*     CLOUDY    52  47  83 N6        29.68S

$$

VAZ055>057-060600-
NORTH AND CENTRAL PIEDMONT

CITY           SKY/WX    TMP DP  RH WIND       PRES   REMARKS
FREDERICKSBRG* DRIZZLE   52  52 100 N3        29.67S
STAFFORD*      DRIZZLE   51  49  93 N7        29.71S

$$

NCZ024-NYZ072-PAZ021-071-VAZ022-071-060600-
OTHER REGIONAL OBSERVATIONS

CITY           SKY/WX    TMP DP  RH WIND       PRES   REMARKS
NEW YORK CITY  CLOUDY    52  43  71 VRB7G17   29.68F
PHILADELPHIA   CLOUDY    56  45  66 NE9       29.67S
PITTSBURGH     PTCLDY    51  42  71 N13       29.77R
ROANOKE        CLOUDY    51  44  77 CALM      29.72S
RICHMOND       RAIN      51  50  96 N7        29.65S FOG
RALEIGH        LGT RAIN  49  48  97 CALM      29.67S FOG

$$

ANZ530>537-060600-
MARINE OBSERVATIONS

STATION/POSITION TIME  TEMP    WIND        PRES
                       AIR SEA DIR/SP/G
                 (UTC) (F)     (DEG/KT/KT) (MB)
THOMAS PT LIGHT  0500   54 57  310/  6/  7 1005.7R
BALT KEY BRIDGE  0400   55      10/  6/  8 1004.1F
COVE POINT       0400   53      50/  7/  9 1004.6S
LEWISETTA        0400   54 61   60/  5/  6 1003.8R
SOLOMONS ISLAND  0400   53 60  350/  4/  4   N/A
PINEY POINT      0400           20/  4/  5   N/A

$$





USA.gov is the U.S. government's official web portal to all federal, state and local government web resources and services.